Truckee-Tahoe, CA

10:32 AM PDT on March 24, 2017 (GMT -0700)
Truckee-Tahoe

Weather History for KTRK - August, 2013

Change the Weather History Date:

Thursday, August 8, 2013

  Actual Average Record
Temperature  
Mean Temperature 54 °F -  
Max Temperature 73 °F 82 °F 96 °F (1981)
Min Temperature 35 °F 43 °F 28 °F (2016)
Degree Days  
Heating Degree Days 11    
Growing Degree Days 4 (Base 50)    
Moisture  
Dew Point 33 °F    
Average Humidity 49    
Maximum Humidity 81    
Minimum Humidity 23    
Precipitation  
Precipitation 0.00 in - - ()
Sea Level Pressure  
Sea Level Pressure 30.15 in    
Wind  
Wind Speed 4 mph (WSW)    
Max Wind Speed 18 mph    
Max Gust Speed 25 mph    
Visibility 10 miles    
Events Thunderstorm    
Averages and records for this station are not official NWS values.
T = Trace of Precipitation, MM = Missing Value Source: NWS Daily Summary

Daily Weather History Graph

Daily Weather History Graph

Search for Another Location

Airport or City:

Trip Planner

Search our weather history database for the weather conditions in past years. The results will help you decide how hot, cold, wet, or windy it might be!

Date:

Astronomy

Aug. 08, 2013 Rise Set
Actual Time 6:07 AM PDT 8:04 PM PDT
Civil Twilight 5:37 AM PDT 8:33 PM PDT
Nautical Twilight 5:02 AM PDT 9:09 PM PDT
Astronomical Twilight 4:23 AM PDT 9:47 PM PDT
Moon 7:58 AM PDT (8/8) 8:46 PM PDT (8/8)
Length of Visible Light 14h 55m
Length of Day
13h 57m
Waxing Crescent, 3% of the Moon is Illuminated
Aug 8
Waxing Crescent
Aug 14
First Quarter
Aug 20
Full
Aug 28
Last Quarter
Sep 5
New

Hourly Weather History & Observations

Time (PDT) Temp. Windchill Dew Point Humidity Pressure Visibility Wind Dir Wind Speed Gust Speed Precip Events Conditions
12:15 AM 46.4 °F 44.3 °F 32.0 °F 57% 30.22 in 10.0 mi SSE 4.6 mph - N/A   Overcast
12:35 AM 48.2 °F - 32.0 °F 54% 30.22 in 10.0 mi West 3.5 mph - N/A   Mostly Cloudy
12:55 AM 48.2 °F - 32.0 °F 54% 30.21 in 10.0 mi NNE 3.5 mph - N/A   Scattered Clouds
1:15 AM 48.2 °F - 32.0 °F 54% 30.21 in 10.0 mi Calm Calm - N/A   Scattered Clouds
1:35 AM 48.2 °F - 32.0 °F 54% 30.21 in 10.0 mi ESE 3.5 mph - N/A   Mostly Cloudy
1:55 AM 48.2 °F - 32.0 °F 54% 30.20 in 10.0 mi Calm Calm - N/A   Mostly Cloudy
2:15 AM 48.2 °F - 32.0 °F 54% 30.20 in 10.0 mi Calm Calm - N/A   Mostly Cloudy
2:35 AM 48.2 °F - 32.0 °F 54% 30.20 in 10.0 mi Calm Calm - N/A   Mostly Cloudy
2:55 AM 50.0 °F - 32.0 °F 50% 30.19 in 10.0 mi SE 10.4 mph - N/A   Scattered Clouds
3:15 AM 46.4 °F 45.2 °F 32.0 °F 57% 30.18 in 10.0 mi West 3.5 mph - N/A   Partly Cloudy
3:35 AM 46.4 °F - 32.0 °F 57% 30.19 in 10.0 mi Calm Calm - N/A   Partly Cloudy
3:55 AM 46.4 °F - 32.0 °F 57% 30.17 in 10.0 mi Calm Calm - N/A   Scattered Clouds
4:15 AM 44.6 °F - 32.0 °F 61% 30.18 in 10.0 mi Calm Calm - N/A   Mostly Cloudy
4:35 AM 46.4 °F - 32.0 °F 57% 30.17 in 10.0 mi Calm Calm - N/A   Partly Cloudy
4:55 AM 44.6 °F - 32.0 °F 61% 30.18 in 10.0 mi Calm Calm - N/A   Clear
5:15 AM 41.0 °F 39.0 °F 32.0 °F 70% 30.18 in 10.0 mi SSW 3.5 mph - N/A   Clear
5:35 AM 41.0 °F 39.0 °F 32.0 °F 70% 30.17 in 10.0 mi South 3.5 mph - N/A   Clear
5:55 AM 37.4 °F - 30.2 °F 75% 30.17 in 10.0 mi Calm Calm - N/A   Clear
6:15 AM 39.2 °F - 32.0 °F 75% 30.18 in 10.0 mi Calm Calm - N/A   Clear
6:35 AM 39.2 °F 37.0 °F 32.0 °F 75% 30.17 in 10.0 mi South 3.5 mph - N/A   Clear
6:50 AM 35.6 °F - 30.2 °F 81% 30.18 in 10.0 mi Calm Calm - N/A   Scattered Clouds
7:50 AM 41.0 °F - 32.0 °F 70% 30.17 in 10.0 mi Calm Calm - N/A   Scattered Clouds
8:50 AM 51.8 °F - 30.2 °F 44% 30.17 in 10.0 mi Calm Calm - N/A   Scattered Clouds
9:55 AM 62.6 °F - 32.0 °F 32% 30.15 in 10.0 mi Calm Calm - N/A   Scattered Clouds
10:55 AM 68.0 °F - 32.0 °F 26% 30.13 in 10.0 mi North 5.8 mph - N/A   Scattered Clouds
11:50 AM 71.6 °F - 32.0 °F 23% 30.12 in 10.0 mi WNW 8.1 mph - N/A   Scattered Clouds
12:55 PM 71.6 °F - 33.8 °F 25% 30.12 in 10.0 mi West 11.5 mph 16.1 mph N/A   Scattered Clouds
1:45 PM 71.6 °F - 35.6 °F 27% 30.11 in 10.0 mi WSW 10.4 mph - N/A   Mostly Cloudy
2:45 PM 73.4 °F - 35.6 °F 25% 30.11 in 10.0 mi West 16.1 mph 24.2 mph N/A   Mostly Cloudy
3:45 PM 71.6 °F - 35.6 °F 27% 30.11 in 10.0 mi West 18.4 mph 25.3 mph N/A   Scattered Clouds
4:45 PM 71.6 °F - 35.6 °F 27% 30.10 in 10.0 mi West 12.7 mph 20.7 mph N/A   Scattered Clouds
5:55 PM 68.0 °F - 35.6 °F 30% 30.10 in 10.0 mi West 13.8 mph 20.7 mph N/A   Clear
6:15 PM 68.0 °F - 35.6 °F 30% 30.11 in 10.0 mi West 15.0 mph 20.7 mph N/A   Clear
6:35 PM 66.2 °F - 35.6 °F 32% 30.11 in 10.0 mi West 15.0 mph 23.0 mph N/A   Mostly Cloudy
6:55 PM 64.4 °F - 35.6 °F 34% 30.11 in 10.0 mi West 9.2 mph 19.6 mph N/A   Mostly Cloudy
7:15 PM 64.4 °F - 35.6 °F 34% 30.11 in 10.0 mi West 12.7 mph 17.3 mph N/A   Mostly Cloudy
7:35 PM 62.6 °F - 35.6 °F 37% 30.12 in 10.0 mi West 12.7 mph - N/A   Scattered Clouds
7:55 PM 62.6 °F - 35.6 °F 37% 30.12 in 10.0 mi West 8.1 mph - N/A   Partly Cloudy
8:15 PM 62.6 °F - 35.6 °F 37% 30.13 in 10.0 mi West 4.6 mph - N/A   Overcast
8:35 PM 60.8 °F - 35.6 °F 39% 30.13 in 10.0 mi West 5.8 mph - N/A Thunderstorm Overcast
8:55 PM 59.0 °F - 35.6 °F 42% 30.13 in 10.0 mi WNW 4.6 mph - N/A   Scattered Clouds
9:15 PM 57.2 °F - 35.6 °F 44% 30.13 in 10.0 mi WNW 6.9 mph - N/A   Scattered Clouds
9:35 PM 55.4 °F - 35.6 °F 47% 30.13 in 10.0 mi South 4.6 mph - N/A   Partly Cloudy
9:55 PM 55.4 °F - 35.6 °F 47% 30.13 in 10.0 mi West 3.5 mph - N/A   Clear
10:15 PM 51.8 °F - 35.6 °F 54% 30.13 in 10.0 mi SW 6.9 mph - N/A   Clear
10:35 PM 50.0 °F - 33.8 °F 54% 30.14 in 10.0 mi SSE 3.5 mph - N/A   Clear
10:55 PM 50.0 °F - 33.8 °F 54% 30.14 in 10.0 mi Calm Calm - N/A   Clear
11:15 PM 50.0 °F - 35.6 °F 58% 30.14 in 10.0 mi SW 3.5 mph - N/A   Clear
11:35 PM 48.2 °F - 35.6 °F 62% 30.14 in 10.0 mi Calm Calm - N/A   Clear
11:55 PM 48.2 °F - 33.8 °F 58% 30.15 in 10.0 mi Calm Calm - N/A   Clear